Home > Weather > Bury > Past weeks

Flag for United Kingdom Past Weather in Bury, England, United Kingdom — Yesterday and Last 2 Weeks

Now
63 °F

Scattered showers. Scattered clouds.


Feels Like: 63 °F
Forecast: 55 / 66 °F
Wind: 3 mph from North

Location: Manchester Airport

Current Time: Jul 28, 2016 at 9:29:46 PM

Latest Report: Jul 28, 2016 at 8:50 PM


Visibility: N/A

Pressure: 29.80 "Hg

Humidity: 94%

Dew Point: 61 °F

Location of BuryLocation

Past Weather in Bury — Graph

°F

Bury Temperature Yesterday

Maximum temperature yesterday: 66 °F (at 1:50 PM)
Minimum temperature yesterday: 54 °F (at 11:20 PM)
Average temperature yesterday: 62 °F

High & Low Weather Summary for the Past Weeks

 TemperatureHumidityPressure
High86 °F (Jul 19, 3:20 PM)100% (Jul 14, 2:50 AM)30.30 "Hg (Jul 14, 2:50 AM)
Low48 °F (Jul 14, 2:50 AM)43% (Jul 19, 2:50 PM)29.68 "Hg (Jul 20, 6:20 AM)
Average64 °F80%30.06 "Hg
* Reported Jul 13 7:50 PM — Jul 28 7:50 PM, Bury, Weather by CustomWeather, © 2016

Note: Actual official high and low records may vary slightly from our data, if they occured in-between our weather recording intervals... More about our weather records

Advertising

Bury Weather History for the Previous 24 Hours

Scroll right to see more
 ConditionsComfort  
Time TempWeatherWind HumidityBarometerVisibility
7:50 PM
Thu, Jul 28
64 °FScattered showers. Passing clouds.3 mph88%29.80 "HgN/A
7:20 PM64 °FSprinkles. Scattered clouds.2 mph88%29.80 "HgN/A
6:50 PM64 °FScattered showers. Scattered clouds.3 mph88%29.80 "HgN/A
6:20 PM64 °FScattered showers. Scattered clouds.3 mph88%29.80 "HgN/A
5:50 PM64 °FScattered showers. Scattered clouds.6 mph88%29.80 "HgN/A
5:20 PM64 °FScattered showers. Scattered clouds.5 mph94%29.80 "HgN/A
4:50 PM63 °FHeavy rain. Scattered clouds.5 mph94%29.80 "Hg4 mi
4:20 PM63 °FHeavy rain. Mostly cloudy.5 mph94%29.83 "Hg1 mi
3:50 PM61 °FScattered showers. Broken clouds.12 mph94%29.83 "Hg5 mi
3:20 PM61 °FDrizzle. Broken clouds.10 mph94%29.83 "Hg2 mi
2:50 PM61 °FDrizzle. Broken clouds.10 mph94%29.83 "Hg3 mi
2:20 PM61 °FBroken clouds.13 mph88%29.83 "HgN/A
1:50 PM59 °FBroken clouds.13 mph94%29.86 "HgN/A
1:20 PM59 °FBroken clouds.14 mph88%29.86 "Hg5 mi
12:50 PM59 °FLight rain. Broken clouds.9 mph94%29.86 "Hg3 mi
12:20 PM59 °FDrizzle. Broken clouds.9 mph88%29.89 "Hg3 mi
11:50 AM61 °FScattered showers. Partly sunny.12 mph77%29.89 "HgN/A
11:20 AM59 °FScattered showers. Partly sunny.8 mph88%29.89 "HgN/A
10:50 AM59 °FLight rain. Partly sunny.9 mph88%29.92 "Hg6 mi
10:20 AM61 °FLight rain. Partly sunny.12 mph77%29.92 "Hg6 mi
9:50 AM61 °FLight rain. Passing clouds.10 mph77%29.92 "HgN/A
9:20 AM61 °FPassing clouds.9 mph77%29.92 "HgN/A
8:50 AM59 °FPassing clouds.9 mph77%29.92 "HgN/A
8:20 AM57 °FPassing clouds.8 mph82%29.92 "HgN/A
7:50 AM57 °FSunny.7 mph82%29.92 "Hg10 mi
7:20 AM55 °FSunny.7 mph82%29.95 "Hg10 mi
6:50 AM54 °FPassing clouds.6 mph88%29.95 "HgN/A
6:20 AM52 °FSunny.6 mph94%29.95 "Hg10 mi
5:50 AM52 °FPassing clouds.5 mph94%29.95 "HgN/A
5:20 AM52 °FPassing clouds.5 mph94%29.98 "HgN/A
4:50 AM52 °FClear.5 mph94%29.98 "Hg10 mi
4:20 AM52 °FPassing clouds.5 mph94%29.98 "HgN/A
3:50 AM52 °FPassing clouds.5 mph94%29.98 "HgN/A
3:20 AM52 °FPassing clouds.5 mph94%29.98 "HgN/A
2:50 AM52 °FClear.3 mph94%30.01 "Hg10 mi
2:20 AM52 °FClear.3 mph94%30.01 "Hg10 mi
1:50 AM52 °FClear.2 mph94%30.01 "Hg10 mi
1:20 AM52 °FClear.3 mph94%30.01 "Hg10 mi
12:50 AM54 °FClear.5 mph88%30.01 "Hg10 mi
12:20 AM54 °FClear.3 mph88%30.01 "Hg10 mi
11:50 PM
Wed, Jul 27
54 °FPassing clouds.5 mph88%30.01 "HgN/A
11:20 PM54 °FCool.3 mph88%30.01 "HgN/A
10:50 PM55 °FPassing clouds.2 mph82%30.01 "HgN/A
10:20 PM57 °FClear.3 mph77%30.01 "Hg10 mi
9:50 PM57 °FPassing clouds.6 mph77%30.01 "HgN/A
9:20 PM59 °FPassing clouds.6 mph72%30.01 "HgN/A
Weather by CustomWeather, © 2016

See weather overviewHow to use our weather pages